Temp
71 70 69 69 68 68 67 68 70 70 71 71 71 70 69 68 67 67 66 66 65 64
71 71 69 70 70 68 69 72 71 72 71 70 70 69 68 66 66 66 66 65 65 63
71 71 70 70 69 69 69 70 70 70 70 70 69 69 68 66 67 66 65 65 64 64
71 71 70 70 70 69 69 70 70 70 69 69 68 68 67 67 67 66 64 65 64 64
71 71 70 69 70 70 69 70 70 69 68 68 69 68 67 67 68 66 64 64 63 64
71 71 70 70 70 70 70 69 69 69 68 68 68 68 68 66 66 65 65 64 63 63
71 70 70 70 70 70 69 69 68 68 68 68 68 68 68 67 65 66 66 65 64 64
72 70 70 70 70 70 69 69 69 68 68 68 69 73 68 69 69 67 64 64 64 64
72 70 69 69 69 68 69 69 68 68 68 68 72 69 70 67 64 64 63 62 62 62
74 71 70 70 69 68 68 68 68 67 67 67 66 66 66 67 63 62 61 61 61 61
70 70 70 68 68 68 67 67 66 66 67 66 67 64 63 63 61 61 62 62 61 61
71 70 68 67 67 67 67 66 66 67 66 65 64 60 59 60 60 59 59 61 62 62
70 69 68 68 68 68 67 67 65 65 65 64 61 60 59 59 58 56 58 59 61 61
70 70 70 69 67 67 66 61 61 63 64 64 63 59 58 57 57 58 57 57 62 57
MSLP
1015.36 1015.66 1015.94 1016.10 1016.36 1016.39 1016.56 1016.69 1016.59 1016.74 1016.80 1016.90 1016.96 1017.04 1017.09 1017.30 1017.39 1017.47 1017.59 1017.67 1017.73 1017.74
1015.25 1015.53 1015.91 1015.94 1016.02 1016.19 1016.33 1016.44 1016.48 1016.37 1016.69 1016.61 1016.66 1016.74 1017.01 1017.17 1017.25 1017.31 1017.33 1017.43 1017.45 1017.48
1015.02 1015.23 1015.42 1015.68 1015.84 1015.95 1016.08 1016.20 1016.27 1016.31 1016.43 1016.48 1016.48 1016.60 1016.73 1016.74 1016.79 1016.92 1017.04 1017.03 1017.12 1017.16
1014.65 1014.89 1015.04 1015.25 1015.56 1015.70 1015.87 1015.98 1016.06 1016.10 1016.20 1016.25 1016.35 1016.43 1016.43 1016.38 1016.39 1016.55 1016.64 1016.63 1016.75 1016.78
1014.15 1014.51 1014.92 1015.05 1015.21 1015.45 1015.57 1015.63 1015.71 1015.76 1015.91 1016.03 1016.02 1015.95 1015.91 1015.88 1015.85 1016.05 1016.25 1016.24 1016.31 1016.32
1013.53 1014.06 1014.33 1014.52 1014.76 1015.07 1015.15 1015.22 1015.30 1015.44 1015.52 1015.51 1015.48 1015.46 1015.32 1015.37 1015.31 1015.45 1015.50 1015.55 1015.75 1015.80
1012.92 1013.37 1013.81 1013.89 1014.15 1014.47 1014.59 1014.71 1014.84 1014.83 1014.78 1014.88 1014.87 1014.84 1014.74 1014.68 1014.66 1014.74 1014.80 1014.77 1014.89 1014.96
1011.90 1012.56 1013.16 1013.45 1013.51 1013.71 1013.95 1014.02 1014.03 1014.18 1014.33 1014.37 1014.39 1014.34 1014.33 1014.30 1014.28 1014.33 1014.39 1014.31 1014.30 1014.26
1011.35 1012.03 1012.61 1012.85 1012.96 1013.22 1013.40 1013.53 1013.68 1013.78 1013.96 1014.04 1013.95 1013.87 1013.93 1014.10 1014.28 1014.19 1014.10 1014.22 1013.89 1013.81
1010.88 1011.40 1011.95 1012.12 1012.49 1012.82 1012.99 1013.10 1013.27 1013.41 1013.50 1013.60 1013.61 1013.54 1013.46 1013.54 1013.84 1014.04 1014.00 1013.84 1013.64 1013.27
1010.27 1010.95 1011.34 1011.79 1012.16 1012.34 1012.48 1012.73 1012.89 1012.89 1012.83 1012.99 1012.95 1013.08 1013.09 1013.33 1013.57 1013.49 1013.14 1013.06 1013.04 1012.84
1009.81 1010.43 1010.96 1011.47 1011.88 1011.99 1012.20 1012.18 1012.07 1012.24 1012.42 1012.51 1012.57 1012.67 1012.87 1013.14 1013.14 1013.21 1013.25 1012.99 1012.64 1012.38
1009.12 1009.81 1010.34 1010.80 1011.12 1011.12 1011.24 1011.72 1011.81 1012.11 1012.13 1011.94 1012.18 1012.29 1012.71 1012.80 1012.88 1013.15 1013.12 1012.53 1012.25 1012.06
1008.69 1009.36 1009.76 1010.05 1010.24 1010.46 1010.82 1011.64 1012.01 1012.16 1012.20 1011.76 1011.77 1012.18 1012.35 1012.52 1012.77 1012.90 1012.70 1012.38 1012.24 1012.11
Wind_Speed
7 3 3 3 4 3 2 2 3 3 4 3 3 3 4 2 2 3 1 1 1 1
6 5 5 5 4 2 3 2 2 3 1 2 3 3 2 2 2 0 1 1 1 1
7 7 6 5 5 4 3 2 2 2 2 3 4 4 3 3 3 2 2 2 2 2
7 7 7 6 5 5 4 4 4 4 4 5 5 5 4 4 5 5 5 3 4 4
8 6 6 6 6 5 5 4 5 4 4 4 5 6 5 6 4 5 5 6 5 6
8 8 8 7 6 5 5 6 5 4 5 6 6 7 7 6 7 5 6 6 6 6
10 9 8 7 7 7 7 6 6 7 7 7 7 7 7 7 6 6 6 7 6 7
10 9 8 8 8 8 7 7 7 6 5 6 5 5 4 2 4 5 7 7 7 7
12 10 9 8 8 7 7 7 6 5 5 6 4 5 8 4 5 5 6 6 6 6
13 11 11 9 7 7 8 6 6 4 4 6 6 9 7 5 2 5 5 6 6 6
9 10 9 7 7 8 5 6 5 6 6 5 5 6 5 2 4 5 7 6 7 6
10 9 7 7 7 6 5 5 6 5 6 5 5 3 5 5 5 5 5 5 7 6
8 8 8 8 8 7 5 7 3 4 4 4 5 5 9 6 1 5 4 5 6 6
8 8 9 9 6 6 6 2 4 5 5 3 1 6 8 6 1 4 3 4 6 4
Wind_Direction
148 153 200 172 155 143 164 174 174 151 158 207 255 265 254 253 288 285 178 302 50 303
166 172 162 154 143 156 118 157 131 149 167 280 303 297 262 255 277 110 123 135 337 306
186 189 180 166 176 193 220 213 233 227 238 276 295 301 278 264 260 276 262 212 283 272
195 192 183 173 193 204 212 215 218 221 237 251 269 278 273 243 243 255 246 235 241 250
172 175 188 188 194 202 201 223 223 233 249 262 269 269 258 244 239 229 248 254 236 243
172 183 189 185 187 199 205 217 235 236 241 248 253 257 258 237 236 237 246 251 227 227
181 184 192 189 195 203 211 219 233 228 232 241 248 252 257 257 240 229 245 244 234 226
179 177 185 191 199 200 209 220 225 234 248 261 256 254 215 245 236 239 248 250 246 238
173 179 188 198 203 203 219 227 225 233 235 263 258 222 240 219 259 258 260 271 274 258
175 180 195 199 194 202 214 204 225 238 233 263 261 263 267 265 286 286 279 265 269 276
168 182 197 189 192 212 201 209 214 231 240 248 256 281 253 332 277 256 248 250 265 256
173 193 188 190 199 210 199 217 212 222 249 245 269 112 154 209 257 286 308 294 289 270
171 174 187 192 200 203 192 214 172 266 253 256 166 173 210 204 269 297 296 295 306 328
176 184 197 206 193 191 179 148 272 235 263 277 6 195 211 221 284 266 288 326 317 46